Weather History for KAND - April, 2014

Change the Weather History Date:

Saturday, April 5, 2014

  Actual Average Record
Temperature  
Mean Temperature 62 °F -  
Max Temperature 71 °F 68 °F - (-1)
Min Temperature 53 °F 46 °F - (-1)
Degree Days  
Heating Degree Days 3    
Growing Degree Days 12 (Base 50)    
Moisture  
Dew Point 43 °F    
Average Humidity 56    
Maximum Humidity 93    
Minimum Humidity 25    
Precipitation  
Precipitation 0.00 in - - ()
Sea Level Pressure  
Sea Level Pressure 29.96 in    
Wind  
Wind Speed 6 mph (WSW)    
Max Wind Speed 9 mph    
Max Gust Speed -    
Visibility 10 miles    
Events      
Averages and records for this station are not official NWS values.
T = Trace of Precipitation, MM = Missing Value Source: NWS Daily Summary

Daily Weather History Graph

Daily Weather History Graph

Search for Another Location

Airport or City:

Trip Planner

Search our weather history database for the weather conditions in past years. The results will help you decide how hot, cold, wet, or windy it might be!

Date:

Astronomy

Apr. 05, 2014 Rise Set
Actual Time 7:12 AM EDT 7:54 PM EDT
Civil Twilight 6:47 AM EDT 8:20 PM EDT
Nautical Twilight 6:17 AM EDT 8:50 PM EDT
Astronomical Twilight 5:46 AM EDT 9:21 PM EDT
Moon 11:28 AM EDT (4/5) 12:55 AM EDT (4/5)
Length of Visible Light 13h 33m
Length of Day
12h 42m
Waxing Crescent, 34% of the Moon is Illuminated
Apr 5
Waxing Crescent
Apr 7
First Quarter
Apr 15
Full
Apr 22
Last Quarter
Apr 29
New

Hourly Weather History & Observations

Time (EDT) Temp. Dew Point Humidity Pressure Visibility Wind Dir Wind Speed Gust Speed Precip Events Conditions
12:56 AM 62.1 °F 55.0 °F 78% 29.91 in 10.0 mi WSW 9.2 mph - N/A   Clear
1:56 AM 60.1 °F 54.0 °F 80% 29.90 in 10.0 mi West 8.1 mph - N/A   Clear
2:56 AM 59.0 °F 54.0 °F 83% 29.90 in 10.0 mi WSW 8.1 mph - N/A   Clear
3:56 AM 57.9 °F 55.0 °F 90% 29.91 in 10.0 mi West 6.9 mph - N/A   Clear
4:56 AM 55.9 °F 54.0 °F 93% 29.91 in 10.0 mi WSW 3.5 mph - N/A   Clear
5:56 AM 55.9 °F 52.0 °F 87% 29.91 in 10.0 mi West 9.2 mph - N/A   Clear
6:56 AM 53.1 °F 46.0 °F 77% 29.93 in 10.0 mi West 4.6 mph - N/A   Clear
7:56 AM 53.1 °F 46.0 °F 77% 29.96 in 10.0 mi West 3.5 mph - N/A   Clear
8:56 AM 55.9 °F 45.0 °F 67% 29.97 in 10.0 mi West 6.9 mph - N/A   Clear
9:56 AM 59.0 °F 45.0 °F 60% 29.98 in 10.0 mi West 6.9 mph - N/A   Clear
10:56 AM 61.0 °F 44.1 °F 54% 29.99 in 10.0 mi Variable 3.5 mph - N/A   Clear
11:56 AM 63.0 °F 43.0 °F 48% 30.01 in 10.0 mi Variable 4.6 mph - N/A   Clear
12:56 PM 64.0 °F 37.9 °F 38% 29.99 in 10.0 mi WSW 5.8 mph - N/A   Clear
1:56 PM 66.9 °F 37.9 °F 34% 29.98 in 10.0 mi WSW 8.1 mph - N/A   Clear
2:56 PM 68.0 °F 34.0 °F 28% 29.97 in 10.0 mi Variable 5.8 mph - N/A   Clear
3:56 PM 68.0 °F 35.1 °F 30% 29.95 in 10.0 mi WSW 6.9 mph - N/A   Clear
4:56 PM 71.1 °F 33.1 °F 25% 29.93 in 10.0 mi WSW 8.1 mph - N/A   Clear
5:56 PM 70.0 °F 34.0 °F 27% 29.94 in 10.0 mi West 5.8 mph - N/A   Clear
6:56 PM 69.1 °F 34.0 °F 27% 29.95 in 10.0 mi Calm Calm - N/A   Clear
7:56 PM 64.0 °F 39.9 °F 41% 29.96 in 10.0 mi SSW 3.5 mph - N/A   Clear
8:56 PM 62.1 °F 37.9 °F 41% 29.97 in 10.0 mi Calm Calm - N/A   Clear
9:56 PM 57.0 °F 42.1 °F 57% 30.01 in 10.0 mi Calm Calm - N/A   Clear
10:56 PM 57.0 °F 39.9 °F 53% 30.01 in 10.0 mi South 3.5 mph - N/A   Clear
11:56 PM 55.0 °F 39.0 °F 55% 30.02 in 10.0 mi Calm Calm - N/A   Clear